Home   Weather   Dover   Past weeks

Flag for USA Past Weather in Dover, Delaware, USA — Yesterday and Last 2 Weeks

Now
76 °F

Sunny.


Feels Like: 74 °F
Forecast: 65 / 85 °F
Wind: 14 mph from West

Location: Dover Air Force Base

Current Time: Apr 29, 2017 at 9:35:07 am

Latest Report: Apr 29, 2017 at 8:58 am


Visibility: 10 mi

Pressure: 30.08 "Hg

Humidity: 100%

Dew Point: 76 °F

Location of DoverLocation

Past Weather in Dover — Graph

°F

Dover Temperature Yesterday

Maximum temperature yesterday: 81 °F (at 12:58 pm)
Minimum temperature yesterday: 66 °F (at 6:58 am)
Average temperature yesterday: 73 °F

High & Low Weather Summary for the Past Weeks

 TemperatureHumidityPressure
High86 °F (Apr 16, 3:58 pm)100% (Apr 15, 12:58 am)30.49 "Hg (Apr 15, 12:58 am)
Low47 °F (Apr 23, 4:58 am)37% (Apr 14, 2:58 pm)29.65 "Hg (Apr 26, 3:18 am)
Average59 °F93%30.00 "Hg
* Reported Apr 14 7:58 am — Apr 29 7:58 am, Dover, Weather by CustomWeather, © 2017

Note: Actual official high and low records may vary slightly from our data, if they occured in-between our weather recording intervals... More about our weather records

Advertising

Dover Weather History for the Previous 24 Hours

Scroll right to see more
 ConditionsComfort  
Time TempWeatherWind HumidityBarometerVisibility
7:58 am
Sat, Apr 29
75 °FSunny.15 mph100%30.02 "Hg10 mi
6:58 am73 °FSunny.15 mph100%29.98 "Hg10 mi
5:58 am74 °FClear.14 mph100%29.99 "Hg10 mi
4:58 am73 °FPassing clouds.10 mph100%30.02 "Hg10 mi
3:59 am72 °FPassing clouds.12 mph100%30.00 "Hg10 mi
3:33 am72 °FThunderstorms. Passing clouds.10 mph100%30.01 "Hg9 mi
2:58 am68 °FPassing clouds.5 mph100%30.02 "Hg10 mi
1:58 am64 °FClear.5 mph100%30.02 "Hg9 mi
12:58 am70 °FPassing clouds.6 mph100%30.03 "Hg10 mi
11:58 pm
Fri, Apr 28
70 °FPassing clouds.3 mph100%30.05 "Hg10 mi
10:58 pm70 °FClear.8 mph100%30.04 "Hg10 mi
9:58 pm70 °FClear.6 mph100%30.06 "Hg10 mi
8:58 pm69 °FClear.3 mph100%30.04 "Hg10 mi
7:58 pm73 °FClear.5 mph93%30.03 "Hg10 mi
6:58 pm77 °FSunny.6 mph88%30.03 "Hg10 mi
5:58 pm78 °FSunny.9 mph79%30.03 "Hg10 mi
4:58 pm80 °FSunny.10 mph86%30.01 "Hg10 mi
3:58 pm79 °FSunny.9 mph87%30.02 "Hg10 mi
2:58 pm79 °FPassing clouds.9 mph89%30.03 "Hg10 mi
1:58 pm81 °FSunny.10 mph95%30.03 "Hg10 mi
12:58 pm81 °FSunny.No wind92%30.03 "Hg10 mi
11:58 am80 °FSunny.6 mph99%30.05 "Hg10 mi
10:58 am78 °FSunny.8 mph100%30.02 "Hg10 mi
9:58 am75 °FSunny.8 mph100%30.02 "Hg10 mi
Weather by CustomWeather, © 2017

See weather overviewHow to use our weather pages